Tracking 17142 objects as of 27-May-2015
HD Live streaming from Space Station

IRIDIUM 18

Track IRIDIUM 18 now!
10-day predictions
IRIDIUM 18 is classified as:


NORAD ID: 24872
Int'l Code: 1997-034D
Perigee: 783.4 km
Apogee: 786.2 km
Inclination: 86.4 °
Period: 100.4 minutes
Semi major axis: 7155 km
RCS: 3.8649 m2 (large)
Launch date: July 9, 1997
Source: United States (US)
Your satellite tracking list
Your tracking list is empty





NASA's NSSDC Master Catalog

Two Line Element Set (TLE):
1 24872U 97034D   15147.50675079  .00000005  00000-0 -54187-5 0  9999
2 24872 086.3944 336.2377 0001970 086.7875 273.3546 14.34216107936173

Source of the keplerian elements: AFSPC

N2YO: 399